Flag for Canada Weather past 2 weeks in Churchill, Manitoba, Canada

0 °F


Feels Like: -15 °F
Forecast: -8 / -3 °F
Wind: 8 mph from Northwest

Location: Churchill

Current Time: Nov 24, 2015 at 10:43:42 PM

Latest Report: Nov 24, 2015 at 10:00 PM

Visibility: 15 mi

Pressure: 30.38 "Hg

Humidity: 84%

Dew point: -4 °F

Location of ChurchillLocation

Historic Weather in Churchill — Graph


Churchill temperature yesterday

Maximum temperature yesterday: 14 °F (at 4:00 AM)
Minimum temperature yesterday: -6 °F (at 8:00 PM)
Average temperature yesterday: 4 °F

Past Weeks' High & Low Weather Summary

High34 °F (Nov 12, 2:00 PM)100% (Nov 10, 1:00 PM)30.43 "Hg (Nov 10, 1:00 PM)
Low-9 °F (Nov 21, 6:00 AM)75% (Nov 12, 2:00 PM)29.30 "Hg (Nov 19, 4:00 AM)
Average16 °F89%29.85 "Hg
* Reported Nov 9 9:00 PM — Nov 24 9:00 PM, Churchill, Weather by CustomWeather, © 2015

Note: Actual official high and low records may vary slightly from our data, if they occured in-between our weather recording intervals... More about our weather records


Churchill weather history for previous 24 hours

Time TempWeatherWind HumidityBarometerVisibility
9:00 PM
Tue, Nov 24
0 °FMostly cloudy.7 mph84%30.38 "Hg15 mi
8:00 PM-2 °FPartly cloudy.8 mph77%30.40 "Hg15 mi
7:00 PM-4 °FPartly cloudy.8 mph84%30.42 "Hg15 mi
6:00 PM-4 °FPartly cloudy.12 mph84%30.43 "Hg15 mi
5:00 PM-4 °FPassing clouds.12 mph84%30.43 "Hg15 mi
4:00 PM-4 °FPartly cloudy.10 mph84%30.43 "Hg15 mi
3:00 PM-2 °FLight snow. Low clouds.13 mph84%30.43 "Hg15 mi
2:00 PM0 °FLight snow. Low clouds.13 mph84%30.42 "Hg15 mi
1:00 PM0 °FLight snow. Low clouds.16 mph84%30.41 "Hg15 mi
12:00 PM-2 °FLight snow. Low clouds.15 mph84%30.41 "Hg15 mi
11:00 AM-2 °FLight snow. Low clouds.15 mph77%30.41 "Hg15 mi
10:00 AM-4 °FLow clouds.13 mph84%30.40 "Hg15 mi
9:00 AM0 °FLow clouds.15 mph84%30.39 "Hg15 mi
8:00 AM0 °FLow clouds.16 mph84%30.38 "Hg15 mi
7:00 AM-2 °FSnow flurries. Low clouds.17 mph84%30.37 "Hg15 mi
6:50 AM-2 °FSnow flurries. Low clouds.16 mph84%30.37 "Hg15 mi
6:00 AM-4 °FPassing clouds.21 mph84%30.37 "Hg15 mi
5:00 AM-4 °FSnow flurries. Overcast.18 mph84%30.34 "Hg15 mi
4:00 AM-4 °FSnow flurries. Overcast.21 mph84%30.32 "Hg15 mi
3:00 AM-6 °FSnow flurries. Passing clouds.16 mph84%30.30 "Hg15 mi
2:00 AM-6 °FSnow flurries. Passing clouds.20 mph84%30.28 "Hg15 mi
1:00 AM-6 °FSnow flurries. Passing clouds.21 mph77%30.26 "Hg15 mi
12:00 AM-6 °FSnow flurries. Passing clouds.21 mph77%30.26 "Hg10 mi
11:00 PM
Mon, Nov 23
-6 °FLight snow. Passing clouds.21 mph77%30.24 "Hg10 mi
10:00 PM-6 °FLight snow. Passing clouds.23 mph77%30.22 "Hg10 mi
Weather by CustomWeather, © 2015

See weather overviewHow to use our weather pages